Other Surface Observations
Issued by NWS

Home | Current Version | Previous Version | Text Only | Print | Product List | Glossary On
Versions: 1 2 3 4 5 6 7 8 9 10 11 12 13 14 15 16 17 18 19 20 21 22 23 24 25 26 27 28 29 30 31 32 33 34 35 36 37 38 39 40 41 42 43 44 45 46 47 48 49 50
833
SXUS52 KTAE 080918
OSOTAE
OSOTAE
North Florida/South Alabama/Southwest Georgia Weather Roundup
National Weather Service Tallahassee Florida
400 AM EST MON FEB 08 2016

Note: "fair" indicates few or no clouds below 12,000 feet with no
significant weather and/or obstructions to visibility.

!FLZ017-115-028-034-025-081000
...North Florida...

CITY           SKY/WX    TMP DP  RH WIND       PRES   REMARKS
TALLAHASSEE    CLEAR     31  27  85 CALM      30.04F
APALACHICOLA   CLEAR     44  37  76 NW5       30.06S WCI  42
PERRY          CLEAR     34  32  92 CALM      30.05S
CROSS CITY       N/A     33  30  88 CALM      30.04F
JACKSONVILLE   CLEAR     37  31  78 W6        30.01S WCI  32
$$

!FLZ112-006-005-002-011-081000
...Florida Panhandle...

CITY           SKY/WX    TMP DP  RH WIND       PRES   REMARKS
MARIANNA       CLEAR     39  31  72 SW5       30.03F WCI  36
BONIFAY        FAIR      40  33  76 W3        30.04F
PANAMA CITY NW FAIR      37  35  92 CALM      30.04F
TYNDALL AFB    CLEAR     43  37  79 NW6       30.05F WCI  39
TYND DRONE APT FAIR      48  39  71 MISG      30.05F
DE FUNIAK SPR  FAIR      43  36  76 W5        30.04F WCI  40
EGLIN AFB      CLEAR     44  38  80 W7        30.03F WCI  39
DESTIN         CLEAR     51  39  63 W6        30.05F
HURLBURT       NOT AVBL
CRESTVIEW      PTCLDY    42  36  79 W3        30.05F
PENSACOLA      CLEAR     47  38  71 W12       30.05F WCI  42
$$

!ALZ063-066-081000
...South Alabama...

CITY           SKY/WX    TMP DP  RH WIND       PRES   REMARKS
DOTHAN         PTCLDY    39  29  67 W5        30.04F WCI  36
OZARK CAIRNS   PTCLDY    39  30  70 SW2       30.01F
FT RUCKER HELI PTCLDY    33  30  88 CALM      30.00F
RUCKER HELI 3  FAIR      38  31  73 W5        30.01F WCI  35
RUCKER HELI 2  FAIR      40  29  64 CALM      30.01
FLORALA APT    NOT AVBL
ANDALUSIA      CLEAR     44  32  62 NW7       30.02F WCI  40
TROY           PTCLDY    36  28  73 S5        30.00F WCI  32
EUFALA         FAIR      34  27  75 SW3       29.98F
MOBILE         CLEAR     42  34  73 VRB3      30.07F
$$

!GAZ120>161-081000
...Southwest and South Central Georgia...

CITY           SKY/WX    TMP DP  RH WIND       PRES   REMARKS
THOMASVILLE    FAIR      41  32  70 W3        30.02F
BAINBRIDGE     PTCLDY    37  32  81 W5        30.03S WCI  34
MOODY AFB      CLEAR     40  29  67 W5        29.99F WCI  36
VALDOSTA       CLEAR     35  31  85 CALM      30.01F
MOULTRIE       CLEAR     39  32  75 W3        30.02S
BLAKELY        CLEAR     37  34  87 CALM      30.01F
ALBANY         CLEAR     33  27  78 CALM      30.02F
TIFTON         FAIR      39  31  73 W3        29.99F
FITZGERALD     FAIR      41  29  63 W3        30.00F
CORDELE        FAIR      37  32  84 CALM      29.99F
AMERICUS       FAIR      34  30  86 CALM      29.99S
HOMERVILLE     FAIR      37  34  87 CALM      30.01S
$$

!GMZ750-755-770-775-081000
...Coastal and Buoy Obs...

STATION/POSITION TIME  TEMP    WIND        PRES    VSBY  WAVE
                       AIR SEA DIR/SP/G                  HT/PER
                 (UTC) (F)     (DEG/KT/KT) (MB)    (MI)  (FT/S)
KEATON BEACH     0900   51     320/  4/  7 1017.4F
CEDAR KEY        0900   52     310/  4/  5 1017.6F
C TOWER          NOT AVBL
APALACHICOLA BUO 0850   61 68  310/ 14/ 19 1017.5F         4/ 5
PANAMA CITY BUOY 0850   60 68  310/ 17/ 21 1018.2F         4/ 5
MOBILE BUOY      NOT AVBL
ORANGE BCH AL BU 0850   56 60  280/ 21/ 25 1017.2F         5/ 5
$$




USA.gov is the U.S. government's official web portal to all federal, state and local government web resources and services.